Tehachapi, CA

11:51 PM PST on January 20, 2017 (GMT -0800)
Tehachapi

Weather History for KTSP - December, 2014

Change the Weather History Date:

Wednesday, December 31, 2014

  Actual Average Record
Temperature  
Mean Temperature 24 °F -  
Max Temperature 32 °F 48 °F 64 °F (2011)
Min Temperature 15 °F 28 °F 15 °F (2014)
Degree Days  
Heating Degree Days 42    
Moisture  
Dew Point 16 °F    
Average Humidity 75    
Maximum Humidity 93    
Minimum Humidity 43    
Precipitation  
Precipitation 0.00 in - - ()
Sea Level Pressure  
Sea Level Pressure 30.00 in    
Wind  
Wind Speed 3 mph (NW)    
Max Wind Speed 16 mph    
Max Gust Speed 21 mph    
Visibility 9 miles    
Events      
Averages and records for this station are not official NWS values.
T = Trace of Precipitation, MM = Missing Value Source: NWS Daily Summary

Daily Weather History Graph

Daily Weather History Graph

Search for Another Location

Airport or City:

Trip Planner

Search our weather history database for the weather conditions in past years. The results will help you decide how hot, cold, wet, or windy it might be!

Date:

Astronomy

Dec. 31, 2014 Rise Set
Actual Time 7:01 AM PST 4:51 PM PST
Civil Twilight 6:33 AM PST 5:20 PM PST
Nautical Twilight 6:02 AM PST 5:51 PM PST
Astronomical Twilight 5:31 AM PST 6:22 PM PST
Moon 1:41 PM PST (12/31) 2:39 AM PST (12/31)
Length of Visible Light 10h 46m
Length of Day
9h 50m
Waxing Gibbous, 81% of the Moon is Illuminated
Dec 31
Waxing Gibbous
Jan 4
Full
Jan 13
Last Quarter
Jan 20
New
Jan 26
First Quarter

Hourly Weather History & Observations

Time (PST) Temp. Windchill Dew Point Humidity Pressure Visibility Wind Dir Wind Speed Gust Speed Precip Events Conditions
12:15 AM 24.8 °F 20.5 °F 5.0 °F 43% 29.96 in 10.0 mi ESE 3.5 mph - N/A   Clear
12:35 AM 24.8 °F - 6.8 °F 46% 29.96 in 10.0 mi Calm Calm - N/A   Clear
12:55 AM 24.8 °F - 5.0 °F 43% 29.96 in 10.0 mi Calm Calm - N/A   Clear
1:15 AM 23.0 °F 18.4 °F 6.8 °F 50% 29.96 in 10.0 mi NNE 3.5 mph - N/A   Clear
1:35 AM 21.2 °F - 6.8 °F 54% 29.96 in 10.0 mi Calm Calm - N/A   Clear
1:55 AM 19.4 °F - 6.8 °F 58% 29.97 in 10.0 mi Calm Calm - N/A   Clear
2:15 AM 19.4 °F - 6.8 °F 58% 29.97 in 10.0 mi Calm Calm - N/A   Clear
2:35 AM 19.4 °F - 6.8 °F 58% 29.97 in 10.0 mi Calm Calm - N/A   Clear
2:55 AM 19.4 °F - 6.8 °F 58% 29.97 in 10.0 mi Calm Calm - N/A   Clear
3:15 AM 17.6 °F - 8.6 °F 68% 29.97 in 10.0 mi Calm Calm - N/A   Clear
3:35 AM 19.4 °F - 6.8 °F 58% 29.96 in 10.0 mi Calm Calm - N/A   Clear
3:55 AM 17.6 °F 12.3 °F 8.6 °F 68% 29.96 in 10.0 mi South 3.5 mph - N/A   Clear
4:15 AM 17.6 °F - 6.8 °F 63% 29.97 in 10.0 mi Calm Calm - N/A   Partly Cloudy
4:35 AM 17.6 °F - 6.8 °F 63% 29.97 in 10.0 mi Calm Calm - N/A   Clear
4:55 AM 17.6 °F - 8.6 °F 68% 29.97 in 10.0 mi Calm Calm - N/A   Clear
5:15 AM 15.8 °F 8.6 °F 8.6 °F 73% 29.97 in 10.0 mi SE 4.6 mph - N/A   Clear
5:35 AM 15.8 °F - 8.6 °F 73% 29.98 in 10.0 mi Calm Calm - N/A   Clear
5:55 AM 15.8 °F - 8.6 °F 73% 29.99 in 10.0 mi Calm Calm - N/A   Clear
6:15 AM 15.8 °F - 8.6 °F 73% 29.99 in 10.0 mi Calm Calm - N/A   Clear
6:35 AM 15.8 °F - 8.6 °F 73% 29.99 in 10.0 mi Calm Calm - N/A   Partly Cloudy
6:55 AM 15.8 °F - 10.4 °F 79% 29.99 in 10.0 mi Calm Calm - N/A   Scattered Clouds
7:15 AM 15.8 °F - 10.4 °F 79% 29.99 in 10.0 mi Calm Calm - N/A   Clear
7:35 AM 17.6 °F - 10.4 °F 73% 30.01 in 10.0 mi Calm Calm - N/A   Clear
7:55 AM 19.4 °F - 14.0 °F 80% 30.01 in 10.0 mi Calm Calm - N/A   Scattered Clouds
8:15 AM 23.0 °F - 12.2 °F 63% 30.03 in 10.0 mi Calm Calm - N/A   Scattered Clouds
8:35 AM 24.8 °F 20.5 °F 15.8 °F 69% 30.03 in 10.0 mi WSW 3.5 mph - N/A   Partly Cloudy
8:55 AM 26.6 °F 22.6 °F 19.4 °F 74% 30.03 in 10.0 mi NW 3.5 mph - N/A   Clear
9:15 AM 26.6 °F 22.6 °F 21.2 °F 80% 30.03 in 10.0 mi NW 3.5 mph - N/A   Clear
9:35 AM 28.4 °F - 19.4 °F 69% 30.04 in 10.0 mi Calm Calm - N/A   Clear
9:55 AM 30.2 °F - 17.6 °F 60% 30.04 in 10.0 mi Calm Calm - N/A   Clear
10:15 AM 30.2 °F - 15.8 °F 55% 30.03 in 10.0 mi Calm Calm - N/A   Clear
10:35 AM 32.0 °F 22.5 °F 15.8 °F 51% 30.03 in 10.0 mi NW 12.7 mph - N/A   Clear
10:55 AM 28.4 °F 16.6 °F 24.8 °F 86% 30.03 in 5.0 mi NW 16.1 mph - N/A   Scattered Clouds
11:15 AM 26.6 °F 15.2 °F 23.0 °F 86% 30.03 in 7.0 mi NW 13.8 mph - N/A   Mostly Cloudy
11:35 AM 26.6 °F 15.2 °F 23.0 °F 86% 30.03 in 7.0 mi NW 13.8 mph 20.7 mph N/A   Overcast
11:55 AM 26.6 °F 15.7 °F 21.2 °F 80% 30.03 in 8.0 mi NW 12.7 mph - N/A   Overcast
12:15 PM 26.6 °F 16.2 °F 19.4 °F 74% 30.02 in 10.0 mi WNW 11.5 mph - N/A   Overcast
12:35 PM 28.4 °F 18.0 °F 21.2 °F 74% 30.01 in 10.0 mi NW 12.7 mph 16.1 mph N/A   Mostly Cloudy
12:55 PM 30.2 °F 20.8 °F 19.4 °F 64% 30.01 in 10.0 mi NW 11.5 mph - N/A   Partly Cloudy
1:15 PM 32.0 °F 23.0 °F 19.4 °F 60% 30.01 in 10.0 mi NW 11.5 mph - N/A   Partly Cloudy
1:35 PM 30.2 °F 19.3 °F 23.0 °F 75% 30.01 in 9.0 mi NW 15.0 mph 18.4 mph N/A   Clear
1:55 PM 28.4 °F 18.5 °F 24.8 °F 86% 30.01 in 8.0 mi NW 11.5 mph - N/A   Clear
2:15 PM 32.0 °F 23.6 °F 23.0 °F 69% 30.01 in 10.0 mi NW 10.4 mph - N/A   Clear
2:35 PM 30.2 °F 20.2 °F 23.0 °F 75% 30.00 in 10.0 mi NNW 12.7 mph - N/A   Clear
2:55 PM 32.0 °F 23.0 °F 23.0 °F 69% 30.00 in 9.0 mi NW 11.5 mph - N/A   Clear
3:15 PM 30.2 °F 20.8 °F 21.2 °F 69% 30.01 in 9.0 mi NW 11.5 mph - N/A   Clear
3:35 PM 28.4 °F 17.0 °F 23.0 °F 80% 30.01 in 8.0 mi NW 15.0 mph - N/A   Clear
3:55 PM 26.6 °F 19.1 °F 23.0 °F 86% 30.01 in 8.0 mi NNW 6.9 mph - N/A   Clear
4:15 PM 28.4 °F 21.2 °F 23.0 °F 80% 30.00 in 9.0 mi NW 6.9 mph - N/A   Clear
4:35 PM 26.6 °F 17.5 °F 23.0 °F 86% 30.01 in 8.0 mi NW 9.2 mph - N/A   Clear
4:55 PM 24.8 °F 16.9 °F 23.0 °F 93% 30.01 in 7.0 mi NW 6.9 mph - N/A   Clear
5:15 PM 24.8 °F 19.1 °F 23.0 °F 93% 30.01 in 7.0 mi WNW 4.6 mph - N/A   Clear
5:35 PM 24.8 °F 20.5 °F 23.0 °F 93% 30.02 in 8.0 mi SW 3.5 mph - N/A   Clear
5:55 PM 24.8 °F 19.1 °F 23.0 °F 93% 30.02 in 7.0 mi WSW 4.6 mph - N/A   Clear
6:15 PM 23.0 °F - 21.2 °F 93% 30.01 in 6.0 mi Calm Calm - N/A   Clear
6:35 PM 23.0 °F - 19.4 °F 86% 30.01 in 10.0 mi Calm Calm - N/A   Clear
6:55 PM 23.0 °F 18.4 °F 19.4 °F 86% 30.01 in 10.0 mi ENE 3.5 mph - N/A   Clear
7:15 PM 21.2 °F 16.4 °F 17.6 °F 86% 30.01 in 8.0 mi SE 3.5 mph - N/A   Clear
7:35 PM 19.4 °F 14.3 °F 17.6 °F 93% 30.01 in 7.0 mi SE 3.5 mph - N/A   Clear
7:55 PM 19.4 °F 14.3 °F 17.6 °F 93% 30.01 in 7.0 mi SE 3.5 mph - N/A   Clear
8:15 PM 19.4 °F - 17.6 °F 93% 30.02 in 8.0 mi Calm Calm - N/A   Clear
8:35 PM 19.4 °F 14.3 °F 17.6 °F 93% 30.02 in 9.0 mi SE 3.5 mph - N/A   Clear
8:55 PM 19.4 °F - 17.6 °F 93% 30.01 in 10.0 mi Calm Calm - N/A   Clear
9:15 PM 19.4 °F 12.8 °F 17.6 °F 93% 30.01 in 10.0 mi SSE 4.6 mph - N/A   Clear
9:35 PM 19.4 °F 14.3 °F 15.8 °F 86% 30.01 in 10.0 mi SE 3.5 mph - N/A   Clear
9:55 PM 17.6 °F - 15.8 °F 93% 30.01 in 10.0 mi Calm Calm - N/A   Clear
10:15 PM 17.6 °F - 14.0 °F 86% 30.01 in 10.0 mi Calm Calm - N/A   Clear
10:35 PM 17.6 °F 10.7 °F 14.0 °F 86% 30.01 in 10.0 mi East 4.6 mph - N/A   Clear
10:55 PM 15.8 °F 8.6 °F 14.0 °F 93% 30.00 in 10.0 mi East 4.6 mph - N/A   Clear
11:15 PM 17.6 °F 12.3 °F 14.0 °F 86% 30.00 in 10.0 mi East 3.5 mph - N/A   Clear
11:35 PM 17.6 °F - 14.0 °F 86% 30.00 in 10.0 mi Calm Calm - N/A   Clear
11:55 PM 15.8 °F - 12.2 °F 86% 30.01 in 10.0 mi Calm Calm - N/A   Clear